Time,TemperatureF,DewpointF,PressureIn,WindDirection,WindDirectionDegrees,WindSpeedMPH,WindSpeedGustMPH,Humidity,HourlyPrecipIn,Conditions,Clouds,dailyrainin,SoftwareType,DateUTC
2013-02-20 00:09:00,10.1,2.0,30.26,North,-999,0.0,0.0,69,0.00,,,0.00,weatherlink.com 1.10,2013-02-20 06:09:00,
2013-02-20 00:24:00,9.8,2.0,30.26,North,-999,0.0,0.0,70,0.00,,,0.00,weatherlink.com 1.10,2013-02-20 06:24:00,
2013-02-20 00:39:00,9.4,2.0,30.27,North,-999,0.0,0.0,71,0.00,,,0.00,weatherlink.com 1.10,2013-02-20 06:39:00,
2013-02-20 00:54:00,9.1,2.0,30.26,North,-999,0.0,0.0,71,0.00,,,0.00,weatherlink.com 1.10,2013-02-20 06:54:00,
2013-02-20 01:09:00,8.8,2.0,30.27,North,-999,0.0,0.0,72,0.00,,,0.00,weatherlink.com 1.10,2013-02-20 07:09:00,
2013-02-20 01:24:00,8.6,1.0,30.27,North,-999,0.0,0.0,72,0.00,,,0.00,weatherlink.com 1.10,2013-02-20 07:24:00,
2013-02-20 01:39:00,8.5,2.0,30.26,North,-999,0.0,0.0,73,0.00,,,0.00,weatherlink.com 1.10,2013-02-20 07:39:00,
2013-02-20 01:54:00,8.5,2.0,30.27,North,-999,0.0,0.0,73,0.00,,,0.00,weatherlink.com 1.10,2013-02-20 07:54:00,
2013-02-20 02:09:00,8.4,1.0,30.27,North,-999,0.0,0.0,73,0.00,,,0.00,weatherlink.com 1.10,2013-02-20 08:09:00,
2013-02-20 02:24:00,8.3,2.0,30.28,North,-999,0.0,0.0,74,0.00,,,0.00,weatherlink.com 1.10,2013-02-20 08:24:00,
2013-02-20 02:39:00,8.1,1.0,30.27,North,-999,0.0,0.0,74,0.00,,,0.00,weatherlink.com 1.10,2013-02-20 08:39:00,
2013-02-20 02:54:00,7.8,1.0,30.27,North,-999,0.0,0.0,74,0.00,,,0.00,weatherlink.com 1.10,2013-02-20 08:54:00,
2013-02-20 03:09:00,7.6,1.0,30.27,North,-999,0.0,0.0,74,0.00,,,0.00,weatherlink.com 1.10,2013-02-20 09:09:00,
2013-02-20 03:24:00,7.4,1.0,30.25,North,-999,0.0,0.0,74,0.00,,,0.00,weatherlink.com 1.10,2013-02-20 09:24:00,
2013-02-20 03:39:00,7.1,1.0,30.25,North,-999,0.0,0.0,75,0.00,,,0.00,weatherlink.com 1.10,2013-02-20 09:39:00,
2013-02-20 03:54:00,6.9,1.0,30.24,North,-999,0.0,0.0,75,0.00,,,0.00,weatherlink.com 1.10,2013-02-20 09:54:00,
2013-02-20 04:09:00,6.8,1.0,30.23,North,-999,0.0,0.0,76,0.00,,,0.00,weatherlink.com 1.10,2013-02-20 10:09:00,
2013-02-20 04:24:00,6.6,1.0,30.24,North,-999,0.0,0.0,76,0.00,,,0.00,weatherlink.com 1.10,2013-02-20 10:24:00,
2013-02-20 04:40:00,6.5,1.0,30.24,North,-999,0.0,0.0,76,0.00,,,0.00,weatherlink.com 1.10,2013-02-20 10:40:00,
2013-02-20 04:54:00,6.4,1.0,30.23,North,-999,0.0,0.0,77,0.00,,,0.00,weatherlink.com 1.10,2013-02-20 10:54:00,
2013-02-20 05:09:00,6.4,1.0,30.23,North,-999,0.0,0.0,77,0.00,,,0.00,weatherlink.com 1.10,2013-02-20 11:09:00,
2013-02-20 05:24:00,6.2,0.0,30.22,North,-999,0.0,0.0,76,0.00,,,0.00,weatherlink.com 1.10,2013-02-20 11:24:00,
2013-02-20 05:39:00,6.0,0.0,30.23,North,-999,0.0,0.0,76,0.00,,,0.00,weatherlink.com 1.10,2013-02-20 11:39:00,
2013-02-20 05:55:00,6.0,0.0,30.23,North,-999,0.0,0.0,76,0.00,,,0.00,weatherlink.com 1.10,2013-02-20 11:55:00,
2013-02-20 06:10:00,4.8,-2.0,30.22,SE,126,0.0,3.0,75,0.00,,,0.00,weatherlink.com 1.10,2013-02-20 12:10:00,
2013-02-20 06:25:00,4.7,-2.0,30.23,East,101,0.0,2.0,75,0.00,,,0.00,weatherlink.com 1.10,2013-02-20 12:25:00,
2013-02-20 06:40:00,4.7,-2.0,30.23,ESE,115,0.0,2.0,75,0.00,,,0.00,weatherlink.com 1.10,2013-02-20 12:40:00,
2013-02-20 06:55:00,4.6,-2.0,30.23,ESE,105,0.0,6.0,74,0.00,,,0.00,weatherlink.com 1.10,2013-02-20 12:55:00,
2013-02-20 07:10:00,4.5,-2.0,30.24,ESE,111,0.0,3.0,75,0.00,,,0.00,weatherlink.com 1.10,2013-02-20 13:10:00,
2013-02-20 07:25:00,4.5,-2.0,30.25,SSW,205,0.0,2.0,75,0.00,,,0.00,weatherlink.com 1.10,2013-02-20 13:25:00,
2013-02-20 07:40:00,4.6,-2.0,30.25,East,87,3.0,4.0,75,0.00,,,0.00,weatherlink.com 1.10,2013-02-20 13:40:00,
2013-02-20 07:55:00,5.0,-1.0,30.25,East,87,0.0,3.0,76,0.00,,,0.00,weatherlink.com 1.10,2013-02-20 13:55:00,
2013-02-20 08:10:00,5.9,0.0,30.25,South,172,0.0,3.0,75,0.00,,,0.00,weatherlink.com 1.10,2013-02-20 14:10:00,
2013-02-20 08:25:00,6.9,0.0,30.26,South,180,0.0,3.0,73,0.00,,,0.00,weatherlink.com 1.10,2013-02-20 14:25:00,
2013-02-20 08:40:00,8.1,1.0,30.26,ESE,107,1.0,6.0,72,0.00,,,0.00,weatherlink.com 1.10,2013-02-20 14:40:00,
2013-02-20 08:55:00,9.2,1.0,30.25,East,95,0.0,3.0,70,0.00,,,0.00,weatherlink.com 1.10,2013-02-20 14:55:00,
2013-02-20 09:10:00,9.7,1.0,30.25,SSW,197,2.0,4.0,68,0.00,,,0.00,weatherlink.com 1.10,2013-02-20 15:10:00,
2013-02-20 09:26:00,10.4,1.0,30.26,South,169,0.0,4.0,66,0.00,,,0.00,weatherlink.com 1.10,2013-02-20 15:26:00,
2013-02-20 09:41:00,11.5,2.0,30.25,South,177,0.0,6.0,66,0.00,,,0.00,weatherlink.com 1.10,2013-02-20 15:41:00,
2013-02-20 09:56:00,12.3,2.0,30.26,SE,137,2.0,5.0,63,0.00,,,0.00,weatherlink.com 1.10,2013-02-20 15:56:00,
2013-02-20 10:11:00,13.0,3.0,30.26,SSE,163,4.0,4.0,64,0.00,,,0.00,weatherlink.com 1.10,2013-02-20 16:11:00,
2013-02-20 10:26:00,13.7,4.0,30.26,SSW,198,0.0,4.0,64,0.00,,,0.00,weatherlink.com 1.10,2013-02-20 16:26:00,
2013-02-20 10:41:00,15.5,5.0,30.26,SSE,166,0.0,5.0,63,0.00,,,0.00,weatherlink.com 1.10,2013-02-20 16:41:00,
2013-02-20 10:56:00,16.2,4.0,30.27,SSW,201,0.0,5.0,60,0.00,,,0.00,weatherlink.com 1.10,2013-02-20 16:56:00,
2013-02-20 11:11:00,16.2,5.0,30.26,South,174,0.0,6.0,61,0.00,,,0.00,weatherlink.com 1.10,2013-02-20 17:11:00,
2013-02-20 11:26:00,16.2,4.0,30.25,SE,140,0.0,4.0,60,0.00,,,0.00,weatherlink.com 1.10,2013-02-20 17:26:00,
2013-02-20 11:41:00,17.0,5.0,30.25,South,183,1.0,5.0,59,0.00,,,0.00,weatherlink.com 1.10,2013-02-20 17:41:00,
2013-02-20 11:57:00,18.0,5.0,30.25,South,173,1.0,6.0,58,0.00,,,0.00,weatherlink.com 1.10,2013-02-20 17:57:00,
2013-02-20 12:11:00,18.6,6.0,30.25,SSE,167,0.0,4.0,57,0.00,,,0.00,weatherlink.com 1.10,2013-02-20 18:11:00,
2013-02-20 12:27:00,18.9,6.0,30.24,SE,143,0.0,6.0,57,0.00,,,0.00,weatherlink.com 1.10,2013-02-20 18:27:00,
2013-02-20 12:41:00,18.9,5.0,30.23,SW,214,2.0,6.0,56,0.00,,,0.00,weatherlink.com 1.10,2013-02-20 18:41:00,
2013-02-20 12:57:00,19.4,6.0,30.22,SSW,213,2.0,6.0,56,0.00,,,0.00,weatherlink.com 1.10,2013-02-20 18:57:00,
2013-02-20 13:12:00,19.4,6.0,30.21,SSE,165,0.0,6.0,55,0.00,,,0.00,weatherlink.com 1.10,2013-02-20 19:12:00,
2013-02-20 13:27:00,20.3,7.0,30.20,SE,146,0.0,5.0,56,0.00,,,0.00,weatherlink.com 1.10,2013-02-20 19:27:00,
2013-02-20 13:42:00,21.4,7.0,30.19,SE,141,0.0,3.0,54,0.00,,,0.00,weatherlink.com 1.10,2013-02-20 19:42:00,
2013-02-20 13:57:00,22.0,7.0,30.18,SE,140,0.0,3.0,52,0.00,,,0.00,weatherlink.com 1.10,2013-02-20 19:57:00,
2013-02-20 14:12:00,22.2,7.0,30.16,ESE,107,0.0,6.0,52,0.00,,,0.00,weatherlink.com 1.10,2013-02-20 20:12:00,
2013-02-20 14:27:00,22.3,7.0,30.15,East,100,0.0,5.0,52,0.00,,,0.00,weatherlink.com 1.10,2013-02-20 20:27:00,
2013-02-20 14:42:00,22.8,7.0,30.15,SSW,192,0.0,5.0,52,0.00,,,0.00,weatherlink.com 1.10,2013-02-20 20:42:00,
2013-02-20 14:57:00,23.3,8.0,30.15,ESE,107,5.0,5.0,52,0.00,,,0.00,weatherlink.com 1.10,2013-02-20 20:57:00,
2013-02-20 15:12:00,23.5,8.0,30.15,South,191,0.0,4.0,51,0.00,,,0.00,weatherlink.com 1.10,2013-02-20 21:12:00,
2013-02-20 15:27:00,23.4,8.0,30.15,SSW,211,0.0,6.0,51,0.00,,,0.00,weatherlink.com 1.10,2013-02-20 21:27:00,
2013-02-20 15:43:00,23.5,7.0,30.14,SSE,159,4.0,5.0,50,0.00,,,0.00,weatherlink.com 1.10,2013-02-20 21:43:00,
2013-02-20 15:58:00,23.6,7.0,30.14,SE,130,2.0,5.0,50,0.00,,,0.00,weatherlink.com 1.10,2013-02-20 21:58:00,
2013-02-20 16:13:00,23.8,8.0,30.13,SE,142,0.0,4.0,50,0.00,,,0.00,weatherlink.com 1.10,2013-02-20 22:13:00,
2013-02-20 16:28:00,23.8,8.0,30.13,SSE,167,0.0,6.0,50,0.00,,,0.00,weatherlink.com 1.10,2013-02-20 22:28:00,
2013-02-20 16:58:00,24.1,8.0,30.12,SSW,202,0.0,4.0,51,0.00,,,0.00,weatherlink.com 1.10,2013-02-20 22:58:00,
2013-02-20 17:13:00,24.3,8.0,30.11,SSE,163,1.0,6.0,50,0.00,,,0.00,weatherlink.com 1.10,2013-02-20 23:13:00,
2013-02-20 17:28:00,24.4,8.0,30.11,ESE,121,0.0,5.0,50,0.00,,,0.00,weatherlink.com 1.10,2013-02-20 23:28:00,
2013-02-20 17:43:00,24.4,9.0,30.11,South,188,0.0,5.0,51,0.00,,,0.00,weatherlink.com 1.10,2013-02-20 23:43:00,
2013-02-20 17:58:00,24.4,8.0,30.10,SE,128,0.0,6.0,50,0.00,,,0.00,weatherlink.com 1.10,2013-02-20 23:58:00,
2013-02-20 18:13:00,24.3,8.0,30.11,East,86,0.0,3.0,50,0.00,,,0.00,weatherlink.com 1.10,2013-02-21 00:13:00,
2013-02-20 18:29:00,24.2,8.0,30.11,South,178,0.0,3.0,50,0.00,,,0.00,weatherlink.com 1.10,2013-02-21 00:29:00,
2013-02-20 18:58:00,24.3,8.0,30.10,SSE,152,2.0,6.0,50,0.00,,,0.00,weatherlink.com 1.10,2013-02-21 00:58:00,
2013-02-20 19:14:00,24.1,8.0,30.10,SW,219,0.0,3.0,51,0.00,,,0.00,weatherlink.com 1.10,2013-02-21 01:14:00,
2013-02-20 19:29:00,24.1,8.0,30.10,SE,142,0.0,3.0,50,0.00,,,0.00,weatherlink.com 1.10,2013-02-21 01:29:00,
2013-02-20 19:44:00,24.1,8.0,30.09,SSE,147,0.0,3.0,51,0.00,,,0.00,weatherlink.com 1.10,2013-02-21 01:44:00,
2013-02-20 19:59:00,24.1,8.0,30.09,ESE,117,0.0,4.0,50,0.00,,,0.00,weatherlink.com 1.10,2013-02-21 01:59:00,
2013-02-20 20:14:00,24.1,8.0,30.09,ESE,111,0.0,7.0,51,0.00,,,0.00,weatherlink.com 1.10,2013-02-21 02:14:00,
2013-02-20 20:29:00,24.0,8.0,30.10,SSE,159,0.0,5.0,51,0.00,,,0.00,weatherlink.com 1.10,2013-02-21 02:29:00,
2013-02-20 20:44:00,23.9,8.0,30.10,South,175,1.0,9.0,51,0.00,,,0.00,weatherlink.com 1.10,2013-02-21 02:44:00,
2013-02-20 20:59:00,23.8,8.0,30.11,SE,146,2.0,6.0,51,0.00,,,0.00,weatherlink.com 1.10,2013-02-21 02:59:00,
2013-02-20 21:14:00,23.7,9.0,30.10,SW,214,1.0,6.0,53,0.00,,,0.00,weatherlink.com 1.10,2013-02-21 03:14:00,
2013-02-20 21:29:00,23.6,9.0,30.09,SE,127,0.0,3.0,53,0.00,,,0.00,weatherlink.com 1.10,2013-02-21 03:29:00,
2013-02-20 21:45:00,23.3,9.0,30.11,SE,136,0.0,4.0,54,0.00,,,0.00,weatherlink.com 1.10,2013-02-21 03:45:00,
2013-02-20 21:59:00,23.1,9.0,30.11,SW,217,0.0,5.0,54,0.00,,,0.00,weatherlink.com 1.10,2013-02-21 03:59:00,
2013-02-20 23:36:00,22.2,9.0,30.11,SE,129,0.0,3.0,57,0.00,,,0.00,weatherlink.com 1.10,2013-02-21 05:36:00,
2013-02-20 23:45:00,22.1,9.0,30.11,East,90,0.0,5.0,57,0.00,,,0.00,weatherlink.com 1.10,2013-02-21 05:45:00,